Temperature
23 20 19 20 21 21 21 20 20 20 21 20 18 17 16 16 16 15 15 15 15 15 16 17 17 18 18 18 19 19 19 19 20 20 20 20 20 20 19 19 19 19 19 19
20 19 21 21 21 20 19 19 18 19 20 20 17 16 16 16 15 14 14 14 14 14 15 16 16 17 17 18 18 18 18 19 19 19 19 19 20 20 20 19 19 19 19 19
19 20 21 20 19 19 19 18 18 18 18 18 17 15 14 15 14 14 13 13 13 13 13 15 15 16 16 17 17 17 17 18 19 19 19 19 19 19 19 19 19 19 18 18
19 19 20 18 18 18 17 18 19 19 17 16 17 14 13 13 13 13 12 12 12 12 13 14 14 15 15 15 16 16 17 17 18 18 19 19 19 19 19 19 19 19 18 18
19 18 18 18 18 18 18 18 17 18 17 15 15 14 12 12 12 12 12 11 11 12 12 13 13 14 14 15 15 15 16 16 16 17 18 18 18 19 19 19 18 18 18 18
19 19 19 18 18 18 17 16 16 14 13 13 13 13 12 11 11 11 12 11 11 11 12 12 13 13 14 14 14 14 15 15 16 16 16 17 18 18 18 18 18 18 17 17
18 18 19 19 17 16 14 13 13 13 12 13 13 12 11 12 12 11 11 11 11 11 11 12 12 13 13 13 13 13 14 14 15 15 16 16 16 17 17 17 17 17 17 17
17 16 17 17 17 16 15 13 12 13 13 12 12 12 11 12 12 11 11 11 11 11 11 11 12 12 12 13 13 13 13 13 14 14 15 15 15 16 16 16 16 16 16 16
16 16 18 17 17 16 15 13 14 12 13 12 12 12 12 12 12 11 11 11 10 11 11 11 12 12 12 12 12 13 13 13 13 14 14 14 14 15 15 15 15 15 15 15
16 16 17 17 16 15 15 14 11 12 12 12 12 11 11 11 11 11 11 10 10 11 11 11 11 12 12 12 12 12 13 13 13 13 13 13 13 14 14 14 14 14 14 14
16 15 15 15 15 14 14 13 12 11 11 11 11 11 11 10 10 10 10 10 11 11 11 11 12 12 12 12 12 12 12 13 13 13 13 13 13 13 13 13 13 13 13 13
15 12 13 15 16 16 14 13 12 11 11 11 11 11 11 10 10 10 10 11 12 12 12 12 12 12 12 12 12 12 12 12 12 13 13 13 13 13 13 13 13 13 13 13
15 13 13 14 14 14 14 14 13 11 10 10 11 11 12 11 11 11 11 12 13 13 13 13 13 13 12 12 12 12 12 12 12 12 13 13 13 13 13 13 13 13 13 13
15 13 13 14 14 14 14 14 13 11 10 10 11 11 11 11 11 12 13 13 13 13 13 13 13 13 13 12 12 12 12 12 12 12 12 13 13 13 13 13 13 13 13 13
14 14 15 15 16 15 15 14 13 12 11 10 11 11 11 11 11 12 13 14 14 14 14 14 14 13 13 13 12 12 12 12 12 12 12 12 12 12 13 13 13 13 13 13
14 15 15 16 16 15 14 14 13 13 12 11 11 12 12 13 13 13 14 14 14 14 14 14 14 14 13 13 12 12 12 12 12 12 12 12 12 12 12 12 12 12 13 13
14 14 14 14 16 15 14 14 14 13 13 12 12 12 13 13 13 14 14 14 15 15 15 15 14 14 14 13 13 12 12 12 12 12 12 12 12 12 12 12 12 12 12 12
15 14 12 13 15 15 14 15 15 14 14 13 13 13 14 14 15 15 15 15 15 15 15 15 15 14 14 14 13 13 12 12 12 12 12 12 12 12 12 12 11 11 11 11
14 14 13 12 14 14 14 15 15 14 14 14 14 14 15 15 14 15 15 15 15 15 15 15 15 14 14 14 13 13 13 12 12 12 12 12 12 12 12 11 11 11 11 11
14 12 13 13 14 14 14 15 16 15 14 15 15 15 15 14 12 13 15 15 15 15 15 15 15 15 14 14 14 13 13 12 12 12 12 11 11 11 11 11 11 10 10 10
15 14 14 14 14 14 15 16 16 13 13 16 16 15 15 15 13 15 15 15 15 15 15 15 15 15 15 14 14 14 13 13 12 12 12 11 11 11 11 11 11 10 10 10
14 14 13 13 14 14 16 15 14 14 16 16 16 16 16 16 15 15 15 15 15 15 15 15 15 15 15 14 14 14 13 13 12 12 12 12 11 11 11 11 11 10 10 11
13 14 12 13 13 15 17 17 17 17 16 16 16 16 16 16 15 15 15 15 15 15 15 15 15 15 15 15 14 14 14 13 13 12 12 12 11 11 11 11 11 11 11 11
15 15 13 13 14 16 17 17 17 17 17 16 16 16 16 16 15 15 15 15 15 15 15 15 15 15 15 15 14 14 14 13 13 13 12 12 11 11 11 11 11 11 11 10
15 15 13 13 14 15 16 17 17 17 17 16 16 16 16 15 15 15 15 15 15 15 15 15 15 15 15 15 14 14 14 14 13 13 12 12 11 11 11 11 11 10 10 10
15 14 14 14 15 15 16 17 17 17 16 16 16 16 15 15 15 15 15 15 15 15 15 15 15 15 15 15 14 14 14 13 13 13 12 12 11 11 11 11 10 10 10 9
Wind_Speed
6 9 8 9 8 5 5 5 4 3 6 6 9 11 13 15 17 16 15 14 14 14 13 14 14 13 12 12 11 10 10 9 7 3 2 4 6 7 6 6 8 9 9 11
8 9 6 7 10 9 9 7 6 5 6 4 9 12 11 16 16 14 15 15 16 16 16 16 15 15 14 13 11 10 9 9 7 5 4 3 4 4 5 5 5 7 7 9
10 4 7 12 12 9 6 5 5 5 6 5 6 7 11 11 16 17 17 16 16 16 16 16 16 14 13 13 12 11 9 9 9 8 4 2 1 1 2 4 5 5 7 8
8 6 10 11 9 8 5 7 7 5 3 3 3 2 7 10 15 19 18 17 17 16 15 14 14 14 13 12 11 10 9 9 9 8 5 4 4 6 7 5 5 5 6 7
5 5 9 8 6 7 6 9 6 4 1 2 6 4 5 8 14 17 16 16 16 15 15 14 13 12 11 11 11 10 10 9 9 9 7 4 4 5 4 4 6 5 4 4
6 3 5 4 4 6 6 6 7 7 5 4 5 4 5 8 12 15 15 15 15 15 15 13 12 11 10 10 10 10 10 10 10 9 7 5 3 3 4 5 6 5 4 4
6 6 5 5 7 9 9 7 6 8 6 2 4 6 4 7 10 12 14 15 14 13 13 12 12 11 11 11 11 10 10 9 10 9 8 6 3 0 2 4 5 5 4 4
4 5 7 7 5 4 6 6 5 2 1 2 5 4 1 7 9 10 11 12 13 13 13 13 12 10 10 11 10 9 9 9 9 8 7 7 5 3 2 2 3 4 3 3
5 3 3 6 7 5 5 4 2 5 2 3 3 2 2 8 11 12 14 14 14 14 14 13 12 10 9 9 9 9 8 8 8 8 7 7 7 6 5 5 5 4 4 4
5 5 1 3 7 8 4 2 6 4 3 2 2 3 7 13 14 14 14 14 14 14 13 13 12 11 9 8 8 8 7 7 7 8 7 6 7 6 6 5 6 5 4 4
5 6 4 6 6 6 7 6 5 4 4 3 1 2 4 8 10 11 12 12 12 12 12 12 11 10 9 8 8 8 8 8 8 7 7 7 7 6 6 6 5 5 4 3
4 6 4 2 1 2 5 4 3 4 3 3 2 2 5 6 8 9 11 11 11 10 10 10 10 9 9 8 8 8 8 8 7 7 6 7 6 6 6 6 5 5 5 5
4 6 4 3 6 6 5 5 4 5 5 3 2 2 4 6 8 9 9 10 10 9 9 8 8 8 8 8 8 8 7 7 7 7 7 8 7 7 7 6 6 6 5 5
5 5 5 5 4 1 3 5 5 5 4 3 1 3 6 7 8 9 10 9 8 8 8 7 7 7 7 7 8 8 8 7 7 8 8 8 8 7 6 6 6 6 6 5
5 4 3 4 4 5 4 5 6 5 5 5 3 3 6 7 7 8 8 8 7 8 8 8 7 6 6 7 7 7 8 8 8 8 9 8 8 7 8 8 8 8 8 8
4 5 3 2 4 6 5 5 6 5 4 4 2 4 6 6 5 6 6 7 7 8 8 9 8 6 5 6 6 7 7 7 7 8 9 9 9 9 9 8 8 9 9 8
3 5 4 2 4 3 1 3 4 4 4 5 4 5 4 3 4 5 5 5 5 7 7 8 7 5 3 3 4 5 5 6 7 8 8 8 8 9 8 8 8 8 7 7
5 5 4 3 3 2 5 3 6 6 4 6 5 5 4 5 4 5 4 3 5 7 7 7 7 6 3 2 3 4 5 6 7 7 7 7 8 8 8 8 8 7 6 6
4 5 4 4 3 1 2 4 6 5 4 6 5 3 3 2 3 5 5 3 4 5 5 4 4 3 2 2 2 4 5 5 6 6 6 6 7 8 8 8 7 6 5 6
5 5 5 4 4 6 8 7 6 5 3 6 5 4 3 4 2 4 6 4 5 6 5 5 5 4 4 1 2 4 3 3 4 4 4 5 6 7 7 7 7 6 6 6
1 2 2 3 4 6 5 7 8 5 7 6 7 6 5 5 5 5 5 3 5 5 6 6 5 4 3 0 2 3 1 1 1 4 5 5 5 6 7 7 6 7 7 8
7 5 4 4 3 7 6 9 9 9 4 8 8 7 6 4 3 1 2 4 5 6 7 6 5 5 4 1 2 1 1 1 2 5 6 6 6 6 6 7 7 7 7 7
7 8 6 7 7 6 9 8 8 7 8 8 8 7 6 4 1 1 2 3 5 6 6 5 5 5 5 2 1 0 2 1 5 5 5 5 6 6 6 7 7 6 6 6
3 4 4 2 5 4 6 5 7 8 8 8 8 7 6 4 2 1 0 3 4 5 5 5 5 6 5 4 2 2 1 4 7 6 5 4 5 6 6 6 6 6 6 6
7 6 4 4 4 4 5 6 8 8 9 8 7 7 7 5 3 2 1 2 3 4 5 5 5 5 4 3 4 4 3 6 7 6 5 4 4 5 5 5 5 5 4 4
6 8 8 8 9 9 11 10 10 11 11 10 9 7 6 6 4 3 2 1 1 3 4 5 5 4 3 3 4 4 3 6 7 5 4 4 4 3 3 4 3 6 5 7
Wind_Direction
46 55 57 53 57 77 70 69 30 11 5 39 67 64 47 42 46 39 31 24 15 13 10 11 16 18 21 20 18 16 9 2 357 331 246 214 209 206 201 198 194 192 189 185
56 48 65 68 46 46 48 48 13 336 350 43 82 67 51 46 43 37 29 18 9 5 5 5 7 11 14 13 9 6 1 351 342 321 280 234 217 216 205 196 182 185 181 179
89 39 44 49 32 23 25 34 344 319 348 21 101 61 36 34 34 30 24 17 10 4 360 358 1 4 6 6 1 357 352 345 334 323 301 263 204 209 205 204 191 184 176 174
69 20 43 44 22 10 335 326 321 313 359 326 42 103 26 7 18 16 10 8 1 355 355 354 356 355 356 353 350 348 347 344 337 330 312 255 216 209 207 201 190 183 173 167
79 44 47 36 3 4 309 307 310 300 174 40 16 99 16 3 7 2 358 357 353 349 348 346 345 342 344 345 346 346 346 347 342 337 325 289 243 225 205 183 173 173 160 163
69 56 54 5 347 357 336 353 23 42 70 55 344 81 29 5 349 344 347 346 342 342 340 339 337 341 343 344 346 345 347 346 345 345 345 331 269 223 189 182 180 171 158 157
42 18 12 4 4 359 23 44 31 22 28 22 22 73 40 341 345 340 338 336 339 340 341 340 340 343 345 344 343 342 346 345 346 352 359 357 350 261 183 180 175 164 160 154
99 12 11 14 17 354 17 77 106 110 315 332 29 55 333 340 340 338 339 340 345 346 344 341 340 341 342 339 339 342 345 346 350 359 2 7 14 34 57 93 126 136 136 130
120 104 78 52 29 50 23 14 150 141 58 62 39 8 311 345 348 349 350 351 351 347 345 343 342 343 339 336 336 342 350 355 360 5 11 21 27 38 52 66 81 89 95 103
124 122 54 22 21 18 55 32 57 70 80 61 29 5 337 334 339 341 344 347 345 343 344 347 347 345 341 336 336 349 1 3 7 13 18 29 31 40 51 64 73 78 82 84
77 109 18 28 30 4 8 21 57 80 101 115 52 345 323 312 321 327 330 330 332 338 339 338 341 343 345 346 353 1 2 8 12 14 19 26 27 33 47 54 60 66 67 71
55 102 75 43 292 59 52 28 77 109 67 82 110 302 295 301 306 315 321 323 325 330 329 331 338 347 351 355 358 3 7 12 11 13 23 26 26 33 38 39 44 52 52 46
83 102 92 353 337 359 27 13 55 108 93 75 84 300 298 306 308 312 314 319 326 331 331 334 340 346 353 360 2 7 9 11 15 20 27 29 29 34 33 28 31 39 44 39
99 84 135 161 212 222 46 31 48 89 100 104 94 278 305 312 312 317 319 321 327 333 334 339 342 346 351 2 10 13 13 13 21 27 29 30 27 29 30 33 37 38 43 48
89 96 128 157 155 122 107 88 72 81 124 138 198 255 275 286 292 302 309 319 337 344 347 352 357 356 2 12 17 20 21 20 25 32 32 27 26 30 36 40 44 48 51 57
89 121 120 126 141 117 99 107 104 97 113 134 195 267 259 275 294 306 314 327 346 348 353 357 2 8 19 26 24 26 26 22 28 35 33 32 35 38 39 41 49 55 56 56
90 123 124 180 180 104 81 187 156 149 173 174 203 241 258 290 307 310 316 335 341 342 345 349 355 6 26 40 42 42 33 32 37 36 33 32 37 39 37 44 48 50 51 54
117 114 129 133 138 251 249 215 157 158 198 208 218 240 233 230 263 290 298 325 341 341 343 342 347 358 14 44 46 51 44 41 39 35 32 33 38 37 34 39 41 41 44 49
120 127 111 118 151 271 261 200 175 169 222 218 207 229 217 211 4 330 307 312 316 320 328 326 330 348 22 62 86 77 50 40 41 36 35 35 41 42 40 38 34 31 40 42
63 87 106 123 158 231 238 205 163 122 240 234 186 178 162 110 63 287 294 315 335 335 331 337 347 9 27 47 125 97 65 46 44 47 52 48 47 50 45 40 37 35 43 43
2 37 119 167 213 254 239 150 123 158 229 197 166 163 154 167 203 246 295 339 347 339 335 349 3 4 348 282 139 113 85 12 41 68 71 59 55 58 50 43 37 37 41 43
176 176 201 168 202 251 188 141 175 211 170 150 153 160 161 185 218 281 358 358 356 347 343 353 1 351 340 335 143 135 267 260 91 85 78 61 50 55 54 50 41 36 39 42
185 187 186 188 212 234 179 187 196 156 149 155 158 165 155 151 166 17 9 355 352 350 346 346 354 353 353 354 140 216 283 146 115 104 93 76 65 55 50 52 47 39 35 39
251 154 137 203 255 203 187 170 153 156 156 161 159 155 148 152 152 100 20 345 349 345 341 342 357 5 355 345 349 326 338 127 125 122 120 106 87 68 52 48 47 48 38 35
219 168 161 213 230 178 218 191 163 152 147 149 151 153 157 154 146 153 198 328 341 341 338 348 356 356 350 353 3 7 64 118 121 127 131 127 108 98 77 61 47 46 34 26
195 174 176 210 200 180 205 199 169 154 161 162 159 165 169 166 171 164 198 279 324 342 348 355 355 358 0 15 16 20 72 123 128 131 141 149 143 127 115 101 64 29 26 22
Height
1529 1535 1544 1542 1539 1539 1539 1543 1545 1541 1536 1537 1544 1548 1549 1547 1545 1546 1546 1545 1543 1539 1536 1533 1530 1528 1526 1523 1522 1521 1520 1520 1520 1521 1521 1522 1523 1524 1525 1527 1529 1531 1533 1536
1538 1546 1542 1538 1537 1538 1541 1546 1548 1543 1538 1539 1548 1553 1553 1553 1553 1553 1551 1548 1545 1541 1536 1533 1529 1527 1525 1523 1521 1520 1518 1518 1517 1517 1517 1518 1519 1520 1522 1523 1525 1527 1529 1531
1545 1548 1540 1539 1542 1544 1545 1548 1548 1547 1542 1540 1547 1558 1558 1557 1556 1554 1553 1550 1547 1544 1538 1534 1530 1527 1525 1522 1520 1518 1516 1515 1514 1513 1513 1513 1515 1516 1518 1519 1520 1522 1524 1527
1546 1546 1543 1545 1548 1547 1551 1544 1542 1542 1549 1556 1551 1567 1567 1562 1559 1557 1555 1551 1548 1544 1539 1535 1531 1527 1524 1522 1520 1516 1514 1511 1510 1509 1509 1509 1509 1510 1511 1513 1515 1517 1519 1522
1552 1550 1550 1552 1551 1548 1548 1541 1541 1541 1547 1558 1558 1567 1574 1566 1565 1562 1559 1554 1550 1546 1541 1536 1532 1529 1525 1522 1518 1515 1511 1508 1506 1505 1504 1504 1504 1505 1506 1508 1510 1512 1514 1517
1552 1551 1551 1553 1550 1548 1545 1544 1544 1549 1557 1572 1569 1571 1579 1576 1573 1567 1561 1556 1551 1546 1541 1536 1533 1529 1524 1521 1517 1513 1510 1507 1504 1502 1500 1499 1499 1499 1501 1502 1504 1507 1509 1511
1560 1557 1555 1554 1554 1552 1552 1561 1571 1574 1579 1580 1571 1576 1584 1577 1573 1569 1563 1557 1552 1546 1541 1536 1532 1528 1523 1520 1517 1513 1509 1506 1503 1500 1498 1497 1496 1496 1497 1498 1500 1502 1505 1507
1569 1573 1562 1559 1558 1559 1559 1566 1581 1586 1586 1583 1577 1582 1583 1577 1573 1570 1564 1558 1552 1547 1541 1536 1532 1527 1523 1520 1517 1513 1509 1506 1502 1500 1497 1496 1495 1494 1495 1496 1498 1499 1501 1503
1570 1574 1564 1561 1560 1559 1564 1568 1568 1578 1578 1585 1585 1583 1578 1575 1572 1568 1564 1558 1553 1547 1542 1536 1531 1527 1524 1521 1517 1514 1510 1506 1503 1500 1498 1496 1495 1494 1494 1495 1496 1497 1499 1501
1561 1572 1567 1564 1562 1562 1564 1566 1574 1580 1587 1592 1588 1587 1588 1579 1574 1569 1565 1559 1554 1549 1543 1537 1532 1528 1525 1521 1518 1514 1511 1507 1504 1502 1500 1498 1497 1496 1496 1496 1496 1497 1499 1500
1559 1572 1575 1571 1573 1573 1570 1571 1575 1582 1584 1593 1594 1595 1585 1582 1577 1572 1567 1561 1556 1551 1545 1540 1535 1530 1527 1523 1519 1516 1512 1509 1507 1504 1503 1501 1500 1499 1498 1498 1498 1499 1500 1501
1562 1574 1582 1576 1571 1569 1570 1572 1576 1586 1589 1590 1594 1597 1583 1581 1577 1572 1567 1562 1557 1553 1548 1543 1538 1533 1529 1525 1521 1518 1515 1512 1510 1508 1506 1504 1503 1502 1501 1501 1501 1501 1502 1503
1563 1575 1589 1586 1583 1576 1574 1573 1574 1581 1589 1593 1595 1596 1581 1580 1576 1572 1567 1563 1558 1554 1550 1545 1541 1537 1532 1528 1525 1521 1518 1516 1513 1511 1509 1508 1506 1505 1505 1504 1504 1504 1505 1505
1562 1574 1582 1588 1586 1578 1579 1577 1577 1582 1592 1594 1592 1590 1583 1579 1576 1571 1567 1563 1560 1556 1552 1548 1544 1540 1536 1533 1529 1526 1523 1520 1517 1515 1513 1511 1510 1509 1508 1507 1507 1507 1507 1507
1563 1575 1575 1576 1574 1575 1578 1579 1580 1583 1587 1591 1590 1587 1583 1578 1575 1572 1568 1564 1561 1558 1554 1551 1547 1544 1540 1537 1533 1530 1527 1524 1521 1519 1516 1514 1513 1512 1511 1510 1509 1508 1508 1508
1565 1574 1576 1578 1575 1576 1580 1580 1580 1582 1584 1586 1586 1585 1578 1576 1574 1572 1569 1566 1563 1559 1556 1553 1550 1547 1544 1541 1537 1534 1531 1528 1526 1523 1521 1519 1517 1515 1514 1513 1511 1510 1510 1509
1568 1574 1581 1585 1578 1580 1587 1581 1580 1582 1581 1583 1585 1582 1576 1576 1574 1572 1569 1567 1564 1562 1559 1556 1553 1550 1547 1544 1541 1538 1535 1533 1530 1527 1525 1523 1521 1519 1517 1516 1514 1513 1512 1511
1568 1574 1583 1585 1586 1590 1584 1574 1575 1578 1578 1577 1577 1576 1575 1575 1574 1572 1570 1568 1565 1563 1560 1558 1555 1552 1549 1547 1544 1541 1539 1536 1533 1531 1529 1526 1524 1522 1520 1519 1517 1516 1515 1513
1564 1571 1580 1588 1589 1586 1580 1574 1574 1577 1578 1574 1574 1574 1574 1574 1574 1572 1570 1569 1566 1564 1562 1559 1557 1554 1551 1549 1547 1544 1542 1539 1537 1534 1532 1530 1527 1525 1523 1521 1519 1518 1517 1515
1565 1569 1579 1584 1587 1588 1576 1568 1569 1575 1579 1572 1572 1573 1573 1574 1577 1574 1571 1569 1567 1565 1562 1560 1558 1555 1553 1551 1549 1547 1544 1542 1540 1537 1535 1533 1530 1528 1525 1523 1522 1520 1519 1517
1571 1573 1577 1581 1581 1575 1564 1564 1570 1582 1576 1568 1570 1571 1572 1573 1574 1573 1571 1569 1567 1565 1563 1561 1559 1556 1554 1553 1551 1549 1547 1545 1543 1541 1538 1536 1533 1530 1528 1526 1525 1523 1521 1520
1570 1575 1576 1580 1580 1576 1560 1563 1568 1567 1563 1566 1568 1570 1572 1572 1573 1572 1571 1570 1568 1566 1563 1561 1559 1557 1556 1554 1552 1550 1549 1547 1545 1544 1541 1539 1536 1534 1532 1529 1527 1526 1524 1522
1562 1562 1564 1566 1566 1555 1555 1556 1558 1560 1562 1565 1567 1570 1571 1572 1572 1572 1571 1570 1568 1566 1564 1562 1560 1558 1557 1555 1553 1551 1550 1549 1547 1546 1544 1541 1539 1537 1535 1533 1531 1529 1527 1525
1553 1553 1556 1557 1554 1551 1553 1555 1557 1559 1561 1564 1567 1569 1570 1571 1572 1572 1571 1570 1569 1567 1565 1564 1562 1560 1558 1556 1554 1553 1551 1550 1549 1547 1546 1544 1542 1540 1538 1536 1534 1532 1530 1527
1548 1549 1552 1554 1551 1552 1553 1553 1556 1558 1561 1563 1566 1568 1569 1570 1571 1571 1571 1570 1569 1568 1566 1565 1563 1561 1559 1557 1555 1554 1552 1551 1550 1549 1548 1546 1545 1543 1542 1540 1538 1535 1533 1531
1541 1543 1547 1548 1543 1545 1546 1550 1553 1556 1559 1561 1564 1566 1568 1569 1570 1571 1571 1570 1569 1568 1567 1565 1564 1562 1560 1558 1556 1555 1553 1552 1551 1550 1549 1548 1547 1546 1544 1543 1540 1539 1536 1534